| time (UTC) | temp F | wind direction | speed MPH | gust MPH | rain 1hr in | rain 24hr in | rain mn in | humidity % | barometer mb |
| 20260903110116 | 51 | 259 | 0.0 | 2.0 | 0.00 | 0.00 | 0.00 | 63 | 1023.6 |
| 20260903105113 | 50 | 191 | 0.0 | 1.0 | 0.00 | 0.00 | 0.00 | 64 | 1023.6 |
| 20260903104113 | 50 | 315 | 0.0 | 3.0 | 0.00 | 0.00 | 0.00 | 66 | 1023.5 |
| 20260903103114 | 50 | 242 | 1.0 | 3.0 | 0.00 | 0.00 | 0.00 | 63 | 1023.6 |
| 20260903102112 | 51 | 315 | 0.0 | 1.0 | 0.00 | 0.00 | 0.00 | 61 | 1023.6 |
| 20260903101113 | 51 | 315 | 0.0 | 1.0 | 0.00 | 0.00 | 0.00 | 63 | 1023.6 |
| 20260903100604 | 51 | 304 | 0.0 | 1.0 | 0.00 | 0.00 | 0.00 | 62 | 1023.6 |
| 20260903095110 | 51 | 312 | 0.0 | 3.0 | 0.00 | 0.00 | 0.00 | 63 | 1023.5 |
| 20260903094546 | 51 | 201 | 1.0 | 4.0 | 0.00 | 0.00 | 0.00 | 63 | 1023.6 |
| 20260903093111 | 51 | 319 | 1.0 | 4.0 | 0.00 | 0.00 | 0.00 | 66 | 1023.6 |
| 20260903092554 | 51 | 314 | 1.0 | 6.0 | 0.00 | 0.00 | 0.00 | 66 | 1023.6 |
| 20260903091553 | 51 | 248 | 0.0 | 1.0 | 0.00 | 0.00 | 0.00 | 67 | 1023.6 |
| 20260903085102 | 51 | 198 | 0.0 | 0.0 | 0.00 | 0.00 | 0.00 | 68 | 1023.7 |
| 20260903084042 | 52 | 198 | 0.0 | 1.0 | 0.00 | 0.00 | 0.00 | 66 | 1023.7 |
| 20260903083033 | 52 | 321 | 0.0 | 3.0 | 0.00 | 0.00 | 0.00 | 67 | 1023.7 |
| 20260903082032 | 51 | 252 | 0.0 | 2.0 | 0.00 | 0.00 | 0.00 | 68 | 1023.7 |
| 20260903081029 | 51 | 326 | 0.0 | 3.0 | 0.00 | 0.00 | 0.00 | 71 | 1023.6 |
| 20260903080027 | 52 | 319 | 0.0 | 2.0 | 0.00 | 0.00 | 0.00 | 71 | 1023.6 |
| 20260903075504 | 53 | 284 | 0.0 | 1.0 | 0.00 | 0.00 | 0.00 | 69 | 1023.7 |
| 20260903074028 | 54 | 262 | 0.0 | 2.0 | 0.00 | 0.00 | 0.00 | 68 | 1023.7 |
| 20260903073018 | 53 | 330 | 0.0 | 1.0 | 0.00 | 0.00 | 0.00 | 69 | 1023.9 |
| 20260903072450 | 52 | 330 | 0.0 | 2.0 | 0.00 | 0.00 | 0.00 | 72 | 1024.0 |
| 20260903071015 | 53 | 214 | 0.0 | 1.0 | 0.00 | 0.00 | 0.00 | 70 | 1024.1 |
| 20260903070015 | 53 | 263 | 0.0 | 1.0 | 0.00 | 0.00 | 0.00 | 71 | 1024.2 |
| 20260903065015 | 53 | 325 | 0.0 | 2.0 | 0.00 | 0.00 | 0.00 | 71 | 1024.1 |
| 20260903064011 | 54 | 259 | 0.0 | 0.0 | 0.00 | 0.00 | 0.00 | 72 | 1024.2 |
| 20260903063011 | 55 | 259 | 0.0 | 1.0 | 0.00 | 0.00 | 0.00 | 70 | 1024.4 |
| 20260903062010 | 55 | 259 | 0.0 | 1.0 | 0.00 | 0.00 | 0.00 | 72 | 1024.4 |
| 20260903061010 | 55 | 205 | 0.0 | 0.0 | 0.00 | 0.00 | 0.00 | 70 | 1024.1 |
| 20260903060008 | 56 | 205 | 0.0 | 3.0 | 0.00 | 0.00 | 0.00 | 68 | 1024.1 |
| 20260903055007 | 57 | 205 | 1.0 | 3.0 | 0.00 | 0.00 | 0.00 | 67 | 1024.0 |
| 20260903054009 | 57 | 204 | 0.0 | 1.0 | 0.00 | 0.00 | 0.00 | 70 | 1024.0 |
| 20260903053008 | 58 | 204 | 0.0 | 2.0 | 0.00 | 0.00 | 0.00 | 68 | 1024.2 |
| 20260903052007 | 59 | 307 | 0.0 | 1.0 | 0.00 | 0.00 | 0.00 | 66 | 1024.2 |
| 20260903051006 | 60 | 107 | 0.0 | 1.0 | 0.00 | 0.00 | 0.00 | 64 | 1024.1 |
| 20260903050006 | 60 | 107 | 0.0 | 1.0 | 0.00 | 0.00 | 0.00 | 64 | 1024.2 |
| 20260903045005 | 60 | 107 | 2.0 | 8.0 | 0.00 | 0.00 | 0.00 | 64 | 1024.4 |
| 20260903043948 | 60 | 322 | 1.0 | 6.0 | 0.00 | 0.00 | 0.00 | 64 | 1024.0 |
| 20260903042946 | 60 | 147 | 1.0 | 4.0 | 0.00 | 0.00 | 0.00 | 66 | 1024.1 |
| 20260903041947 | 61 | 302 | 1.0 | 3.0 | 0.00 | 0.00 | 0.00 | 60 | 1024.5 |
| 20260903041426 | 61 | 312 | 1.0 | 3.0 | 0.00 | 0.00 | 0.00 | 59 | 1024.9 |
| 20260903035947 | 60 | 264 | 0.0 | 2.0 | 0.00 | 0.00 | 0.00 | 64 | 1024.9 |
| 20260903034948 | 60 | 232 | 0.0 | 1.0 | 0.00 | 0.00 | 0.00 | 63 | 1024.6 |
| 20260903033945 | 60 | 231 | 0.0 | 4.0 | 0.00 | 0.00 | 0.00 | 64 | 1024.7 |
| 20260903032945 | 60 | 315 | 0.0 | 0.0 | 0.00 | 0.00 | 0.00 | 61 | 1024.6 |
| 20260903031941 | 60 | 315 | 0.0 | 1.0 | 0.00 | 0.00 | 0.00 | 60 | 1024.4 |
| 20260903030942 | 61 | 316 | 1.0 | 4.0 | 0.00 | 0.00 | 0.00 | 58 | 1024.4 |
| 20260903025940 | 62 | 242 | 1.0 | 2.0 | 0.00 | 0.00 | 0.00 | 59 | 1024.0 |
| 20260903024941 | 62 | 329 | 2.0 | 5.0 | 0.00 | 0.00 | 0.00 | 60 | 1024.0 |
| 20260903023939 | 62 | 134 | 1.0 | 5.0 | 0.00 | 0.00 | 0.00 | 60 | 1024.1 |
| 20260903022939 | 63 | 121 | 0.0 | 2.0 | 0.00 | 0.00 | 0.00 | 59 | 1024.2 |
| 20260903021940 | 64 | 44 | 0.0 | 1.0 | 0.00 | 0.00 | 0.00 | 56 | 1024.1 |
| 20260903020939 | 65 | 51 | 3.0 | 11.0 | 0.00 | 0.00 | 0.00 | 51 | 1024.1 |
| 20260903015939 | 65 | 132 | 2.0 | 10.0 | 0.00 | 0.00 | 0.00 | 51 | 1024.1 |
| 20260903015905 | 66 | 266 | 4.0 | 9.0 | 0.00 | 0.00 | 0.00 | 49 | 1023.9 |
| 20260903013939 | 66 | 353 | 1.0 | 3.0 | 0.00 | 0.00 | 0.00 | 48 | 1023.5 |
| 20260903012939 | 66 | 267 | 0.0 | 4.0 | 0.00 | 0.00 | 0.00 | 47 | 1023.5 |
| 20260903011936 | 67 | 314 | 2.0 | 9.0 | 0.00 | 0.00 | 0.00 | 45 | 1023.4 |
| 20260903010937 | 67 | 274 | 4.0 | 13.0 | 0.00 | 0.00 | 0.00 | 45 | 1023.2 |
| 20260903005937 | 67 | 314 | 3.0 | 10.0 | 0.00 | 0.00 | 0.00 | 47 | 1023.2 |
| 20260903004936 | 66 | 271 | 3.0 | 7.0 | 0.00 | 0.00 | 0.00 | 48 | 1023.6 |
| 20260903004425 | 66 | 253 | 4.0 | 8.0 | 0.00 | 0.00 | 0.00 | 49 | 1023.5 |
| 20260903002937 | 66 | 258 | 4.0 | 7.0 | 0.00 | 0.00 | 0.00 | 50 | 1023.5 |
| 20260903001938 | 65 | 281 | 5.0 | 8.0 | 0.00 | 0.00 | 0.00 | 50 | 1023.2 |
| 20260903000934 | 65 | 252 | 5.0 | 9.0 | 0.00 | 0.00 | 0.00 | 53 | 1023.2 |
| 20260902235934 | 68 | 239 | 6.0 | 10.0 | 0.00 | 0.00 | 0.00 | 48 | 1023.4 |
| 20260902234906 | 70 | 270 | 4.0 | 8.0 | 0.00 | 0.00 | 0.00 | 41 | 1023.5 |
| 20260902233903 | 71 | 248 | 3.0 | 10.0 | 0.00 | 0.00 | 0.00 | 38 | 1023.2 |
| 20260902232856 | 72 | 305 | 5.0 | 9.0 | 0.00 | 0.00 | 0.00 | 34 | 1023.1 |
| 20260902231857 | 74 | 325 | 5.0 | 10.0 | 0.00 | 0.00 | 0.00 | 32 | 1023.2 |
| 20260902230858 | 74 | 316 | 1.0 | 11.0 | 0.00 | 0.00 | 0.00 | 32 | 1023.4 |
| 20260902225857 | 74 | 194 | 0.0 | 1.0 | 0.00 | 0.00 | 0.00 | 33 | 1023.6 |
| 20260902224857 | 75 | 88 | 0.0 | 1.0 | 0.00 | 0.00 | 0.00 | 32 | 1023.5 |
| 20260902223858 | 74 | 87 | 0.0 | 1.0 | 0.00 | 0.00 | 0.00 | 32 | 1023.5 |
| 20260902222857 | 74 | 313 | 0.0 | 4.0 | 0.00 | 0.00 | 0.00 | 34 | 1023.5 |
| 20260902222316 | 74 | 65 | 1.0 | 5.0 | 0.00 | 0.00 | 0.00 | 34 | 1023.5 |
| 20260902220828 | 74 | 48 | 1.0 | 7.0 | 0.00 | 0.00 | 0.00 | 32 | 1023.2 |
| 20260902215828 | 74 | 136 | 2.0 | 7.0 | 0.00 | 0.00 | 0.00 | 33 | 1023.2 |
| 20260902214827 | 74 | 32 | 1.0 | 12.0 | 0.00 | 0.00 | 0.00 | 32 | 1023.2 |
| 20260902213827 | 74 | 83 | 1.0 | 6.0 | 0.00 | 0.00 | 0.00 | 32 | 1023.4 |
| 20260902213304 | 74 | 25 | 1.0 | 6.0 | 0.00 | 0.00 | 0.00 | 32 | 1023.5 |
| 20260902211758 | 74 | 52 | 0.0 | 1.0 | 0.00 | 0.00 | 0.00 | 35 | 1023.6 |
| 20260902210756 | 74 | 43 | 0.0 | 1.0 | 0.00 | 0.00 | 0.00 | 32 | 1023.7 |
| 20260902205757 | 75 | 44 | 0.0 | 3.0 | 0.00 | 0.00 | 0.00 | 40 | 1023.9 |
| 20260902204757 | 75 | 107 | 0.0 | 2.0 | 0.00 | 0.00 | 0.00 | 31 | 1024.0 |
| 20260902203757 | 76 | 131 | 0.0 | 2.0 | 0.00 | 0.00 | 0.00 | 31 | 1024.2 |
| 20260902203240 | 75 | 317 | 1.0 | 3.0 | 0.00 | 0.00 | 0.00 | 29 | 1024.2 |
| 20260902201752 | 75 | 91 | 0.0 | 3.0 | 0.00 | 0.00 | 0.00 | 31 | 1024.5 |
| 20260902200751 | 75 | 32 | 2.0 | 8.0 | 0.00 | 0.00 | 0.00 | 29 | 1024.6 |
| 20260902195751 | 76 | 117 | 3.0 | 9.0 | 0.00 | 0.00 | 0.00 | 28 | 1024.6 |
| 20260902194752 | 77 | 354 | 3.0 | 11.0 | 0.00 | 0.00 | 0.00 | 28 | 1024.6 |
| 20260902193750 | 78 | 95 | 3.0 | 10.0 | 0.00 | 0.00 | 0.00 | 27 | 1024.6 |
| 20260902192750 | 77 | 117 | 3.0 | 9.0 | 0.00 | 0.00 | 0.00 | 28 | 1024.7 |
| 20260902191751 | 77 | 82 | 2.0 | 10.0 | 0.00 | 0.00 | 0.00 | 27 | 1025.0 |
| 20260902191204 | 76 | 8 | 2.0 | 7.0 | 0.00 | 0.00 | 0.00 | 27 | 1025.1 |
| 20260902185723 | 75 | 46 | 3.0 | 12.0 | 0.00 | 0.00 | 0.00 | 28 | 1025.2 |
| 20260902184721 | 75 | 32 | 3.0 | 9.0 | 0.00 | 0.00 | 0.00 | 28 | 1025.4 |
| 20260902184211 | 75 | 49 | 3.0 | 9.0 | 0.00 | 0.00 | 0.00 | 29 | 1025.4 |
| 20260902182719 | 75 | 37 | 4.0 | 14.0 | 0.00 | 0.00 | 0.00 | 28 | 1025.5 |
| 20260902182207 | 74 | 105 | 4.0 | 12.0 | 0.00 | 0.00 | 0.00 | 29 | 1025.6 |
| 20260902180710 | 76 | 36 | 2.0 | 8.0 | 0.00 | 0.00 | 0.00 | 27 | 1025.9 |
| 20260902175711 | 74 | 99 | 3.0 | 9.0 | 0.00 | 0.00 | 0.00 | 28 | 1026.0 |
| 20260902174711 | 74 | 65 | 3.0 | 13.0 | 0.00 | 0.00 | 0.00 | 28 | 1026.1 |
| 20260902173711 | 74 | 127 | 3.0 | 9.0 | 0.00 | 0.00 | 0.00 | 27 | 1026.1 |
| 20260902172712 | 74 | 103 | 3.0 | 10.0 | 0.00 | 0.00 | 0.00 | 29 | 1026.3 |
| 20260902171710 | 74 | 72 | 3.0 | 9.0 | 0.00 | 0.00 | 0.00 | 29 | 1026.3 |
| 20260902171146 | 74 | 88 | 3.0 | 8.0 | 0.00 | 0.00 | 0.00 | 29 | 1026.1 |
| 20260902165708 | 74 | 147 | 2.0 | 9.0 | 0.00 | 0.00 | 0.00 | 30 | 1026.3 |
| 20260902165153 | 74 | 82 | 2.0 | 9.0 | 0.00 | 0.00 | 0.00 | 31 | 1026.4 |
| 20260902164148 | 73 | 133 | 2.0 | 7.0 | 0.00 | 0.00 | 0.00 | 31 | 1026.4 |
| 20260902162709 | 74 | 43 | 0.0 | 5.0 | 0.00 | 0.00 | 0.00 | 33 | 1026.4 |
| 20260902161710 | 73 | 94 | 0.0 | 3.0 | 0.00 | 0.00 | 0.00 | 34 | 1026.5 |
| 20260902160709 | 71 | 103 | 1.0 | 6.0 | 0.00 | 0.00 | 0.00 | 34 | 1026.5 |
| 20260902155710 | 71 | 92 | 1.0 | 4.0 | 0.00 | 0.00 | 0.00 | 36 | 1026.6 |
| 20260902154652 | 70 | 110 | 1.0 | 7.0 | 0.00 | 0.00 | 0.00 | 38 | 1026.6 |
| 20260902153624 | 70 | 96 | 1.0 | 3.0 | 0.00 | 0.00 | 0.00 | 39 | 1026.5 |
| 20260902152623 | 69 | 135 | 1.0 | 4.0 | 0.00 | 0.00 | 0.00 | 38 | 1026.5 |
| 20260902151623 | 68 | 140 | 1.0 | 6.0 | 0.00 | 0.00 | 0.00 | 39 | 1026.5 |
| 20260902150623 | 68 | 93 | 1.0 | 3.0 | 0.00 | 0.00 | 0.00 | 38 | 1026.5 |
| 20260902145624 | 67 | 84 | 1.0 | 4.0 | 0.00 | 0.00 | 0.00 | 39 | 1026.4 |
| 20260902144621 | 66 | 95 | 1.0 | 3.0 | 0.00 | 0.00 | 0.00 | 42 | 1026.5 |
| 20260902143621 | 66 | 36 | 0.0 | 2.0 | 0.00 | 0.00 | 0.00 | 42 | 1026.3 |
| 20260902142621 | 66 | 61 | 0.0 | 1.0 | 0.00 | 0.00 | 0.00 | 47 | 1026.4 |
| 20260902141621 | 64 | 103 | 0.0 | 2.0 | 0.00 | 0.00 | 0.00 | 47 | 1026.3 |
| 20260902140621 | 63 | 64 | 0.0 | 1.0 | 0.00 | 0.00 | 0.00 | 53 | 1026.1 |
| 20260902135620 | 61 | 248 | 0.0 | 0.0 | 0.00 | 0.00 | 0.00 | 50 | 1026.1 |
| 20260902134621 | 60 | 248 | 0.0 | 0.0 | 0.00 | 0.00 | 0.00 | 54 | 1026.3 |
| 20260902134553 | 58 | 248 | 0.0 | 0.0 | 0.00 | 0.00 | 0.00 | 55 | 1026.3 |
| 20260902132605 | 56 | 248 | 0.0 | 1.0 | 0.00 | 0.00 | 0.00 | 56 | 1026.3 |
| 20260902132027 | 54 | 270 | 0.0 | 2.0 | 0.00 | 0.00 | 0.00 | 56 | 1026.1 |
| 20260902131502 | 54 | 319 | 0.0 | 3.0 | 0.00 | 0.00 | 0.00 | 55 | 1026.1 |
| 20260902125551 | 53 | 239 | 1.0 | 3.0 | 0.00 | 0.00 | 0.00 | 54 | 1026.1 |
| 20260902124551 | 53 | 284 | 0.0 | 2.0 | 0.00 | 0.00 | 0.00 | 53 | 1025.9 |
| 20260902124025 | 51 | 328 | 0.0 | 1.0 | 0.00 | 0.00 | 0.00 | 54 | 1025.9 |
| 20260902122549 | 51 | 208 | 0.0 | 1.0 | 0.00 | 0.00 | 0.00 | 57 | 1025.8 |
| 20260902122025 | 50 | 205 | 0.0 | 1.0 | 0.00 | 0.00 | 0.00 | 57 | 1025.6 |
| 20260902120551 | 50 | 205 | 0.0 | 0.0 | 0.00 | 0.00 | 0.00 | 61 | 1025.6 |
| 20260902120024 | 51 | 205 | 1.0 | 3.0 | 0.00 | 0.00 | 0.00 | 64 | 1025.6 |
| 20260902115026 | 50 | 255 | 0.0 | 1.0 | 0.00 | 0.00 | 0.00 | 67 | 1025.5 |
| 20260902113550 | 50 | 255 | 0.0 | 1.0 | 0.00 | 0.00 | 0.00 | 70 | 1025.5 |
| 20260902112549 | 51 | 255 | 0.0 | 1.0 | 0.00 | 0.00 | 0.00 | 70 | 1025.6 |
| 20260902111533 | 51 | 255 | 0.0 | 2.0 | 0.00 | 0.00 | 0.00 | 72 | 1025.6 |